DECAYED

METEOR 2-7 DEB, 28601 (Decayed)

Orbit data source: Space-Track

METEOR 2-7 DEB, 28601 was space debris in LEO originally from a launch on Thu, 14 May 1981 UTC launched from the Plesetsk Missile And Space Complex (PKMTR). Debris objects in space refer to the collection of defunct objects orbiting the Earth. Examples of debris include non-operational satellites, rocket bodies, and fragments generated from explosions, collisions, or faulty payload assembly.

Loading next visibility...
Identifier
28601, 1981-043K
Orbit
Decayed
Last TLE update
1 year ago
Origin
Manufacturer
Unknown
Mission
Decayed spacecraft
Bus & Motor
Unknown
Mass
Unknown
Launch date (UTC)
1981-05-14 (44 years ago)
Launch vehicle
Unknown
Launch site
Plesetsk Missile And Space Complex (PKMTR)
Object type
Payload
Rocket body
Debris
Shape & HBR
Unknown
Radar Cross Section
Small (<0.1 m²)

Expand to show TLE details & history

TLE from 1 year ago
0 METEOR 2-7 DEB
1 28601U 81043K   24096.87954368  .00017010  00000-0  33225-2 0  9990
2 28601  81.2462 298.0698 0035012 316.8036  43.0418 14.62445333 45679
Epoch: 2024-04-05T21:06Z
TLE epoch observation values (Epoch: 2024-04-05T21:06:32.573Z)
Latitude
-0.00004°
Longitude
146.77802°
Altitude
670.222 km
Speed
7.531 km/s
True Right ascension
19h 52m 16s
True Declination
0° 00' 00"
Sunlit
Object was in daylight at epoch
Visualization orbit readout
Visualization observer readout
Orbital elements
Apogee altitude
707.114 km
Perigee altitude
657.673 km
Semi-major axis
7,060.53 km
Eccentricity
0.0035
Inclination
81.2462°
RAAN
298.0698°
Arg. of periapsis
316.8036°
True anomaly
Unknown
Mean anomaly
43.0418°
Eccentric anomaly
Unknown
Mean motion
3.65837 °/min
Orbital period
98.4 mins
BSTAR
0.0033225
Loading maneuver chart data...
Loading SW <> Apogee altitude chart data...
Loading historical data...
Loading historical data...
Loading historical data...
Loading historical data...
Loading historical data...
Loading historical data...
Loading historical data...

METEOR 2-7 DEB Visibility forecast

Observer location: undefined°, undefined°

Span
Click to sort rows by Start time (UTC) header in descending order
Start Az.
Max El. time (UTC)
Max El. Az.
Max El.
End time (UTC)
End Az.
6 mins2025-07-09 22:21:57.929Z135.281° SSE2025-07-09 22:24:57.929Z82.699° E21.364°2025-07-09 22:27:57.929Z38.555° NE
6 mins2025-07-09 23:59:57.929Z237.677° WSW2025-07-10 00:02:57.929Z295.436° NW24.065°2025-07-10 00:05:57.929Z342.235° N
7 mins2025-07-10 10:08:57.929Z351.444° N2025-07-10 10:11:57.929Z357.022° N44.061°2025-07-10 10:15:57.929Z171.375° S
|